Hourly Data Report for October 23, 2015

All times are specified in Local Standard Time (LST). Add 1 hour to adjust for Daylight Saving Time where and when it is observed.

MONCTON INTL A
NEW BRUNSWICK

46°06'44.000" N
64°40'43.000" W
70.70 m
8103201
71705
YQM

Download Data

Hourly Data (October 2015)
Hourly Data Report for October 23, 2015
Temp Definition
°C
Dew Point Temp Definition
°C
Rel Hum Definition
%
Wind Dir Definition
10's deg

Wind Spd Definition
km/h
Visibility Definition
km
Stn Press Definition
kPa
Hmdx Definition


Wind Chill Definition


Weather Definition


TIME
00:00 Legend Double Dagger 11.8 11.2 96 22 15 9.7 100.11     Drizzle,Fog
01:00 Legend Double Dagger 12.2 11.4 95 23 18 19.3 100.08     LegendNANA
02:00 Legend Double Dagger 11.6 10.8 95 23 14 19.3 100.04     Cloudy
03:00 Legend Double Dagger 10.2 7.1 81 30 22 24.1 100.08     LegendNANA
04:00 Legend Double Dagger 7.7 4.7 81 31 12 24.1 100.09     LegendNANA
05:00 Legend Double Dagger 7.3 3.6 77 29 14 24.1 100.18     Cloudy
06:00 Legend Double Dagger 6.8 3.3 78 28 11 24.1 100.25     LegendNANA
07:00 Legend Double Dagger 6.0 1.7 74 30 12 24.1 100.33     LegendNANA
08:00 Legend Double Dagger 5.9 2.0 76 28 22 24.1 100.41     Mostly Cloudy
09:00 Legend Double Dagger 5.2 0.4 71 29 23 24.1 100.49     LegendNANA
10:00 Legend Double Dagger 6.9 -0.1 61 29 30 24.1 100.53     LegendNANA
11:00 Legend Double Dagger 7.1 -0.4 59 29 26 24.1 100.59     Mostly Cloudy
12:00 Legend Double Dagger 8.7 0.4 56 30 19 24.1 100.61     LegendNANA
13:00 Legend Double Dagger 8.1 -0.4 55 31 24 24.1 100.66     LegendNANA
14:00 Legend Double Dagger 7.5 0.3 60 31 21 24.1 100.72     Mostly Cloudy
15:00 Legend Double Dagger 7.7 -0.3 57 32 31 24.1 100.83     LegendNANA
16:00 Legend Double Dagger 7.0 0.5 63 32 25 24.1 100.96     Rain Showers
17:00 Legend Double Dagger 6.6 0.3 64 32 25 24.1 101.09     Cloudy
18:00 Legend Double Dagger 6.1 -0.4 63 34 18 24.1 101.19     LegendNANA
19:00 Legend Double Dagger 5.5 -0.8 64 34 34 24.1 101.30     LegendNANA
20:00 Legend Double Dagger 4.2 -0.6 71 33 20 24.1 101.41     Mostly Cloudy
21:00 Legend Double Dagger 3.8 -0.2 75 33 25 24.1 101.46     Rain Showers
22:00 Legend Double Dagger 2.8 0.9 87 34 21 24.1 101.56     Rain Showers
23:00 Legend Double Dagger 2.8 1.5 91 33 17 24.1 101.61     Mostly Cloudy

Notes on Data Quality.

Legend

  • E = Estimated
  • M = Missing
  • NA = Not Available
  • ‡ = Partner data that is not subject to review by the National Climate Archives
Date modified: